Погода Геокчаы

Погода Геокчаы : погода сейчас, прогноз погоды и архив. Всё, что Вы хотите узнать о погоде Геокчаы!

Поиск расширенной информации на нашем сайте:

Другие новости

Новости СМИ2

Главная страница сайта

Новости сайта

03.07.2017

Напоминаем, что на нашем специализированном сайте Метеоцентр.Азия вы можете получить высокодетализированные автоматические прогнозы погоды по пунктам России, СНГ и мира в авиационном формате (включающие направление и скорость ветра, видимость, явления погоды, количество и форму облачности, нижнюю и верхнюю границу облачности).


Погода Геокчаы - сегодня

Время (UTC), дата Ветер
(°,м/с) 
Видим.   Явления Облачность Т
(°С)
Тd
(°С)
f(%) Тe
(°С)
Pmin
(гПа)
dP
(гПа)
Po
(мм)
O2
(г/м3)
Тmin Tmax R s Состояние
почвы
00 15.11.18 270 (З) 4000 м  дымка  10/10 600 м 
[Sc]
+7.4 +6.7 95 +7  1023.8  -1.4  759  297           
03 15.11.18 270 (З) 4000 м  дымка  10/10 600 м 
[Sc]
+7.3 +6.8 97 +8  1023.5  -0.3  759  297           
09 15.11.18 тихо ()   4000 м  дымка  10/10 600 м 
[Sc]
+9.7 +8.1 90 +10  1022.7  -1.1  758  294           
12 15.11.18 170 (Ю) 4000 м  дымка  10/10 600 м 
[Sc]
+11.5 +9.2 86 +13  1021.5  1.1  757  291           
15 15.11.18 тихо ()   4000 м  слаб. морось  10/10 300 м 
[St]
+10.6 +10.3 98 +12  1022.2  0.7  758  292           
18 15.11.18 тихо ()   4000 м  дымка{морось}  10/10 600 м 
[Sc]
+10.6 +10.2 97 +12  1022.6  0.6  758  292    +11.6  0.3     
21 15.11.18 180 (Ю) 4000 м  слаб. морось  10/10 300 м 
[St]
+11.2 +10.9 98 +14  1022.1  -0.4  758  291           
00 16.11.18 тихо ()   4000 м  слаб. морось  10/10 300 м 
[St]
+11.1 +10.7 97 +13  1021.7  -0.4  758  291           
06 16.11.18 110 (В) 4000 м  слаб. морось  10/10 300 м 
[St]
+11.8 +11.2 96 +16  1023  1.3  759  291  +10.5    0.6     
09 16.11.18 180 (Ю) 4000 м  дымка{дождь, морось}  10/10 600 м 
[Sc]
+13.1 +12.7 97 +19  1022.4  -0.6  758  289           
12 16.11.18 270 (З) 4000 м  дымка  10/10 600 м 
[Sc]
+13 +12.6 97 +19  1022.3  -0.1  758  289           
15 16.11.18 270 (З) 4000 м  дымка  10/10 600 м 
[Sc]
+11.1 +10.5 96 +14  1023.4  759  292           
18 16.11.18 270 (З) 4000 м  дымка  10/10 600 м 
[Sc]
+11.2 +10.6 96 +13  1024.3  0.9  760  292    +13.4     
21 16.11.18 110 (В) 4000 м  дымка  10/10 600 м 
[Sc]
+12.1 +11.5 96 +16  1023.9  -0.3  759  291           
00 17.11.18 270 (З) 4000 м  дымка  10/10 600 м 
[Sc]
+11 +10.4 96 +13  1023.6  -0.4  759  292           
03 17.11.18 тихо ()   4000 м  дымка  10/10 600 м 
[Sc]
+11 +10.4 96 +12  1023.8  0.2  759  292           
09 17.11.18 270 (З) 4000 м  слаб. морось  10/10 300 м 
[St]
+12.3 +11.9 97 +16  1024.3  -0.5  760  291           
12 17.11.18 270 (З) 4000 м  дымка{морось}  10/10 600 м 
[Sc]
+14.1 +12.1 88 +18  1022.7  -1.5  758  288           
15 17.11.18 270 (З) 4000 м  дымка{морось}  10/10 600 м 
[Sc]
+13 +11.7 92 +17  1023.4  0.6  759  290           
18 17.11.18 200 (Ю) 4000 м  дымка  6/0 средняя 
[Ac trans]
+9.1 +8.1 93 +10  1024.4  0.8  760  295    +14.5  0.4     
21 17.11.18 250 (З) 4000 м  дымка  3/0 средняя 
[Ac trans]
+7.5 +6.8 95 +8  1024.9  0.4  760  297           
00 18.11.18 320 (СЗ) 20000 м    ясно 
+7.5 +4.8 83 +7  1025.2  0.3  760  297           
03 18.11.18 360 (С) 20000 м    8/8 600 м 
[Sc]
+7.4 +5 85 +7  1025.3  0.1  760  297           
06 18.11.18 360 (С) 20000 м    8/0 средняя 
[Ac lent]
+10.9 +7.4 79 +11  1025.4  0.3  760  293  +7.1         
09 18.11.18 230 (ЮЗ) 20000 м    9/9 600 м 
[Sc]
+13.3 +7.8 69 +15  1024.1  -1.2  759  290           
Время (UTC), дата Ветер
(°,м/с) 
Видим.   Явления Облачность Т
(°С)
Тd
(°С)
f(%) Тe
(°С)
Pmin
(гПа)
dP
(гПа)
Po
(мм)
O2
(г/м3)
Тmin Tmax R s Состояние
почвы

Для получения пояснительной информации подведите курсор к названию столбца.

ПОГОДА Геокчаы - архив

Всё, что Вы хотите узнать о погоде Геокчаы - удобно и подробно!

Выберите нужную дату (начиная с 1 января 2015* года) и нажмите кнопку "Найти".
Будут отображены архивные сводки погоды по пункту Геокчаы, начиная с указанной даты.


Отображать данные в формате CSV (для использования в таблицах Excel)


Внимание! Наш архив погоды предназначен исключительно для личного некоммерческого использования в познавательных целях. Если Вам необходимы официальные справки о состоянии погоды (для производственных, юридических, коммерческих и т.п. целей), обращайтесь в органы Росгидромета.

*Примечание: данная дата относится к архиву по метеостанциям СССР (Россия, СНГ, Балтия).
Архив по метеостанциям Зарубежной Европы и Азии (кроме Китая) хранится 10 дней, по другим регионам земного шара (Китай, Африка, Америка, Австралия, Океания) - 1 день.

Геокчаы - район местоположения метеостанции


Название, широта, долгота, высота метеостанции:
Геокчаы 40.6°ш. 47.8°д. 95 м над ур. моря [Азербайджан]

Дополнительная информация

В oтличие oт бoльшинства пoгoдных сайтoв мы публикуем пoдрoбную метеoинфoрмацию в детальнoм прoфессиoнальнoм фoрмате.

Характеристики температуры и влажнoсти вoздуха измеряются на высoте 2 м в тени вдали oт зданий и деревьев.
Скoрoсть ветра измеряется на высoте 10 м (на урoвне рoста челoвека скoрoсть ветра ниже в 1.5-2 раза). Если метеoстанция нахoдится в гoрoде или в лесу, тo скoрoсть ветра занижена на 2-4 м/с пo сравнению с oткрытым местoм. Скoрoсть ветра над акватoриями крупных рек и oзёр, а также на вершинах хoлмoв на 2-5 м/с выше, чем в oбычных услoвиях.
Атмoсфернoе давление в разных тoчках местнoсти мoжет значительнo oтличаться oт давления на метеoстанции, в зависимoсти oт услoвий рельефа (при пoдъёме на 10 м давление пoнижается примернo на 1 мм рт.ст.).